Regional Weather Roundup
Issued by NWS

Home | Current Version | Previous Version | Text Only | Print | Product List | Glossary On
Versions: 1 2 3 4 5 6 7 8 9 10 11 12 13 14 15 16 17 18 19 20 21 22 23 24 25 26 27 28 29 30 31 32 33 34 35 36 37 38 39 40 41 42 43 44 45 46 47 48 49 50
956
ASUS43 KLMK 241902
RWRKY
KENTUCKY REGIONAL WEATHER ROUNDUP
NATIONAL WEATHER SERVICE LOUISVILLE KY
200 PM EST FRI FEB 24 2017

NOTE "FAIR" INDICATES FEW OR NO CLOUDS BELOW 12,000 FEET
WITH NO SIGNIFICANT WEATHER AND/OR OBSTRUCTIONS TO VISIBILITY.

KYZ001>023-026-027-061>063-070>075-242000-
WESTERN AND SOUTH CENTRAL KENTUCKY

CITY           SKY/WX    TMP DP  RH WIND       PRES   REMARKS
PADUCAH        CLOUDY    71  52  50 SW21G29   29.59S
HENDERSON      SUNNY     77  52  41 S21G29    29.53F
OWENSBORO      PTSUNNY   78  51  38 SW26G36   29.55F
HOPKINSVILLE   SUNNY     80  48  32 SW23G35   29.60F
BOWLING GREEN  MOSUNNY   79  54  41 S21G33    29.62F
GLASGOW        NOT AVBL
$$

KYZ024-025-028>034-038-045-046-053-242000-
NORTH CENTRAL KENTUCKY

CITY           SKY/WX    TMP DP  RH WIND       PRES   REMARKS
LOUISVILLE/SDF PTSUNNY   80  50  34 S23G36    29.57F
LOUISVILLE/LOU SUNNY     79  51  37 SW22G32   29.58F
FORT KNOX      SUNNY     78  53  42 S24G31    29.58F
$$

KYZ035>037-039>044-047>052-055>060-089>105-242000-
NORTHEAST KENTUCKY

CITY           SKY/WX    TMP DP  RH WIND       PRES   REMARKS
LEXINGTON      MOSUNNY   79  51  37 S20G31    29.65F
COVINGTON      CLOUDY    76  53  44 S25G33    29.59F
FRANKFORT      SUNNY     78  51  38 S25G32    29.62F
$$

KYZ054-064>069-076>088-106>120-242000-
SOUTHEAST KENTUCKY

CITY           SKY/WX    TMP DP  RH WIND       PRES   REMARKS
JACKSON        SUNNY     77  51  40 S10       29.72F
LONDON         MOSUNNY   75  50  41 SW16G23   29.73F
SOMERSET       NOT AVBL
MIDDLESBORO    MOSUNNY   73  53  50 S8G18     29.77F
MONTICELLO     PTCLDY    77  55  46 S13G20    29.71F
$$





USA.gov is the U.S. government's official web portal to all federal, state and local government web resources and services.